DW5903 Weather Reports


time (UTC)temp
C
wind
direction
speed
KPH
gust
KPH
rain 1hr
cm
rain 24hr
cm
rain mn
cm
humidity
%
barometer
mb
20260510164518 8 290 11.3 27.4 0.00 0.43 0.00 49 1019.2
20260510163016 8 281 9.7 17.7 0.00 0.43 0.00 50 1019.0
20260510161513 8 291 9.7 22.5 0.00 0.43 0.00 51 1018.9
20260510160011 8 300 9.7 19.3 0.00 0.43 0.00 53 1018.8
20260510154512 8 329 8.0 19.3 0.00 0.43 0.00 55 1018.6
20260510153009 8 279 8.0 17.7 0.00 0.43 0.00 55 1018.5
20260510151507 8 304 8.0 17.7 0.00 0.43 0.00 58 1018.4
20260510150005 8 307 9.7 25.7 0.00 0.43 0.00 59 1018.2
20260510144503 8 304 4.8 20.9 0.00 0.43 0.00 58 1017.9
20260510143002 8 302 8.0 14.5 0.00 0.43 0.00 58 1017.7
20260510141606 7 279 6.4 20.9 0.00 0.43 0.00 59 1017.6
20260510141501 7 306 8.0 20.9 0.00 0.43 0.00 57 1017.6
20260510140058 8 261 6.4 17.7 0.00 0.43 0.00 58 1017.2
20260510134612 7 273 4.8 16.1 0.00 0.43 0.00 56 1016.9
20260510133053 7 288 4.8 12.9 0.00 0.43 0.00 58 1016.8
20260510131550 7 290 3.2 12.9 0.00 0.43 0.00 60 1016.5
20260510130047 7 275 4.8 19.3 0.00 0.43 0.00 62 1016.5
20260510124552 6 268 8.0 22.5 0.00 0.43 0.00 64 1016.5
20260510123039 6 297 4.8 14.5 0.00 0.43 0.00 65 1016.5
20260510121536 5 307 6.4 19.3 0.00 0.43 0.00 67 1016.3
20260510120039 5 287 6.4 16.1 0.00 0.43 0.00 69 1016.1
20260510114531 5 263 3.2 12.9 0.00 0.43 0.00 72 1015.7
20260510113030 4 275 4.8 12.9 0.00 0.43 0.00 73 1015.5
20260510111527 3 263 1.6 14.5 0.00 0.43 0.00 75 1015.2
20260510110030 3 286 3.2 9.7 0.00 0.43 0.00 76 1015.0
20260510104523 3 265 3.2 9.7 0.00 0.43 0.00 77 1014.8
20260510103022 2 263 1.6 6.4 0.00 0.43 0.00 78 1014.5
20260510101521 2 258 1.6 11.3 0.00 0.43 0.00 78 1014.3
20260510100017 2 272 0.0 0.0 0.00 0.43 0.00 78 1014.1
20260510094525 2 290 0.0 4.8 0.00 0.43 0.00 77 1013.6
20260510093013 2 302 1.6 6.4 0.00 0.43 0.00 77 1013.4
20260510091520 2 281 1.6 6.4 0.00 0.43 0.00 78 1013.1
20260510090008 2 261 0.0 3.2 0.00 0.43 0.00 78 1013.0
20260510084505 3 254 1.6 4.8 0.00 0.43 0.00 77 1012.8
20260510083004 3 254 1.6 6.4 0.00 0.43 0.00 77 1012.7
20260510081629 3 311 3.2 9.7 0.00 0.43 0.00 78 1012.3
20260510080057 3 300 0.0 0.0 0.00 0.43 0.00 78 1012.2
20260510074602 3 300 3.2 8.0 0.00 0.43 0.00 79 1012.1
20260510073055 3 311 0.0 4.8 0.00 0.43 0.00 79 1011.9
20260510071549 3 311 0.0 4.8 0.00 0.43 0.00 77 1011.7
20260510070048 3 309 0.0 6.4 0.00 0.43 0.00 77 1011.6
20260510064544 4 315 3.2 8.0 0.00 0.43 0.00 76 1011.7
20260510063043 4 290 1.6 6.4 0.00 0.43 0.00 76 1011.7
20260510061541 4 323 1.6 8.0 0.00 0.43 0.00 74 1011.7
20260510060048 4 324 3.2 8.0 0.00 0.43 0.00 73 1011.7
20260510054535 5 324 1.6 8.0 0.00 0.43 0.00 71 1011.5
20260510053034 5 303 4.8 9.7 0.00 0.43 0.00 71 1011.4
20260510051538 5 313 4.8 17.7 0.00 0.43 0.00 71 1011.2
20260510050030 5 335 4.8 9.7 0.00 0.43 0.00 71 1011.0
20260510044527 5 326 3.2 12.9 0.00 0.43 0.00 71 1010.9
20260510043025 5 308 6.4 20.9 0.00 0.43 0.00 70 1010.8
20260510041528 6 355 8.0 19.3 0.00 0.43 0.00 69 1010.6
20260510040018 6 315 6.4 17.7 0.00 0.43 0.00 71 1010.4
20260510034515 6 324 1.6 12.9 0.00 0.43 0.43 73 1010.1
20260510033012 6 329 3.2 14.5 0.00 0.43 0.43 73 1009.7
20260510031508 6 302 6.4 11.3 0.00 0.43 0.43 71 1009.6
20260510030007 6 323 4.8 17.7 0.00 0.43 0.43 68 1009.5
20260510024510 7 304 4.8 14.5 0.00 0.43 0.43 64 1009.2
20260510023008 7 307 4.8 12.9 0.00 0.43 0.43 60 1009.1
20260510021506 8 321 4.8 9.7 0.00 0.43 0.43 57 1008.9
20260510020004 8 338 0.0 8.0 0.00 0.43 0.43 59 1008.5
20260510014504 8 312 4.8 14.5 0.00 0.43 0.43 60 1008.2
20260510013008 8 306 4.8 12.9 0.00 0.43 0.43 61 1008.1
20260510011629 8 315 3.2 9.7 0.00 0.43 0.43 64 1007.8
20260510010110 8 299 1.6 12.9 0.00 0.43 0.43 64 1007.4
20260510004600 9 339 4.8 12.9 0.00 0.43 0.43 63 1007.0
20260510004500 9 298 4.8 12.9 0.00 0.43 0.43 63 1007.0
20260510003107 9 337 3.2 16.1 0.00 0.43 0.43 64 1006.7
20260510001558 10 309 6.4 14.5 0.00 0.43 0.43 63 1006.5
20260510000059 10 325 4.8 17.7 0.00 0.43 0.43 65 1006.2
20260509234606 10 309 11.3 22.5 0.00 0.43 0.43 63 1005.8
20260509233102 11 309 8.0 25.7 0.00 0.43 0.43 64 1005.3
20260509231604 13 313 14.5 24.1 0.00 0.43 0.43 57 1004.9
20260509230055 14 284 9.7 20.9 0.00 0.43 0.43 59 1004.3
20260509224602 14 263 11.3 32.2 0.00 0.43 0.43 59 1004.0
20260509223053 14 277 11.3 30.6 0.00 0.43 0.43 58 1003.9
20260509221553 14 283 12.9 29.0 0.00 0.43 0.43 61 1003.8
20260509220052 15 259 14.5 29.0 0.00 0.43 0.43 63 1003.6
20260509214551 15 267 8.0 22.5 0.00 0.43 0.43 65 1003.4
20260509213102 15 245 8.0 24.1 0.00 0.43 0.43 67 1003.4
20260509211611 14 246 9.7 27.4 0.00 0.43 0.43 70 1003.3
20260509210056 13 200 1.6 17.7 0.00 0.43 0.43 77 1003.2
20260509204559 13 236 8.0 24.1 0.05 0.43 0.43 79 1002.9
20260509203056 12 263 11.3 24.1 0.43 0.43 0.43 83 1002.8
20260509201547 11 236 9.7 20.9 0.43 0.43 0.43 86 1002.5
20260509200046 10 242 11.3 27.4 0.43 0.43 0.43 86 1002.6
20260509194547 10 229 14.5 53.1 0.41 0.41 0.41 78 1003.3
20260509193045 16 206 9.7 32.2 0.00 0.00 0.00 60 1001.2
20260509191545 16 162 17.7 41.8 0.00 0.00 0.00 54 1001.2
20260509190048 17 249 16.1 33.8 0.00 0.00 0.00 52 1001.6
20260509184546 17 219 17.7 35.4 0.00 0.00 0.00 49 1001.6
20260509183042 18 238 20.9 48.3 0.00 0.00 0.00 47 1001.8
20260509181540 17 225 22.5 48.3 0.00 0.00 0.00 50 1001.7
20260509180038 17 206 19.3 35.4 0.00 0.00 0.00 48 1001.7
20260509174535 17 194 14.5 35.4 0.00 0.00 0.00 51 1001.8
20260509173032 16 212 11.3 22.5 0.00 0.00 0.00 57 1001.9
20260509171529 16 177 11.3 29.0 0.00 0.00 0.00 59 1002.4
20260509170027 15 211 8.0 24.1 0.00 0.00 0.00 62 1002.8